Starlink 11119

operational
NORAD ID: 60121 Int'l Des: 2024-118 Owner: SPXS Country: US Constellation: starlink
LEOCIRCULAR

Starlink 11119について

説明を読み込み中...

リアルタイム位置

3D地球を読み込み中...

次回通過

高度履歴

Altitude vs Time

uPlot chart will show altitude changes over time

軌道要素

1 60121U 24118J 25351.15455179 -.00000838 00000-0 -20485-5 0 9994
2 60121 53.1585 267.8771 0001715 89.9299 270.1915 15.69708914 85038
Epoch: Dec 17, 2025 • Age: 23 hours

現在のステータス

高度 372.9 km
速度 7.69 km/s
衛星直下点 -37.78°S, 104.69°E
打ち上げ日 Jun 24, 2024
運用期間 1.4 years
タイプ internet

技術仕様

分類 Payload
質量 960.00 kg
乾燥質量 910.00 kg
総質量 960.00 kg
長さ 0.30 m
直径 4.10 m
スパン 29.00 m
形状 Box + pan
製造者 SPXS
バスタイプ Starlink V2MD
フェーズステータス In Orbit
所有者/国 SPXS/US

大規模コンステレーション

Loading constellations...